N7QNM-13 Weather Reports


time (UTC)temp
F
wind
direction
speed
knots
gust
knots
rain 1hr
in
rain 24hr
in
rain mn
in
humidity
%
barometer
mb
20260903001150 62 178 6.1 8.7 0.05 0.07 0.07 71 1007.9
20260903000051 63 175 7.8 10.4 0.05 0.06 0.06 68 1007.8
20260902235049 63 204 7.0 11.3 0.03 0.05 0.05 66 1007.6
20260902234051 64 92 9.6 12.2 0.03 0.04 0.04 64 1007.4
20260902233550 64 172 9.6 13.0 0.02 0.04 0.04 63 1007.5
20260902232550 65 205 7.0 14.8 0.02 0.03 0.03 63 1007.5
20260902231550 67 184 10.4 13.0 0.01 0.02 0.02 57 1007.5
20260902230611 67 207 8.7 13.0 0.00 0.01 0.01 50 1007.4
20260902225550 68 180 7.0 10.4 0.00 0.01 0.01 50 1007.6
20260902225050 68 213 7.8 11.3 0.00 0.01 0.01 49 1007.6
20260902224050 69 238 7.8 13.0 0.00 0.01 0.01 47 1007.7
20260902223051 69 187 6.1 11.3 0.01 0.01 0.01 46 1007.7
20260902222052 69 215 7.0 10.4 0.01 0.01 0.01 46 1007.7
20260902221052 68 214 7.0 11.3 0.01 0.01 0.01 49 1007.6
20260902220112 67 217 10.4 17.4 0.01 0.01 0.01 51 1007.6
20260902215052 68 213 9.6 16.5 0.01 0.01 0.01 56 1007.6
20260902214051 73 196 7.8 11.3 0.01 0.01 0.01 52 1007.6
20260902213051 74 177 7.8 10.4 0.00 0.00 0.00 42 1007.0
20260902212051 75 177 7.8 11.3 0.00 0.00 0.00 39 1006.7
20260902211052 76 187 7.0 12.2 0.00 0.00 0.00 39 1006.5
20260902210113 77 169 7.8 11.3 0.00 0.00 0.00 37 1006.4
20260902205051 79 166 7.8 12.2 0.00 0.00 0.00 35 1006.3
20260902204052 79 215 5.2 10.4 0.00 0.00 0.00 35 1006.3
20260902203052 79 179 5.2 9.6 0.00 0.00 0.00 36 1006.3
20260902202113 77 124 6.1 11.3 0.00 0.00 0.00 37 1006.4
20260902201052 77 219 6.1 11.3 0.00 0.00 0.00 37 1006.5
20260902200052 77 263 7.0 10.4 0.00 0.00 0.00 37 1006.6
20260902195112 77 238 7.8 13.9 0.00 0.00 0.00 37 1006.7
20260902194052 77 249 7.8 13.9 0.00 0.00 0.00 37 1006.8
20260902193054 76 214 6.1 8.7 0.00 0.00 0.00 39 1007.1
20260902192053 75 188 6.1 11.3 0.00 0.00 0.00 39 1007.2
20260902191053 75 158 8.7 11.3 0.00 0.00 0.00 39 1007.4
20260902190053 75 235 4.3 11.3 0.00 0.00 0.00 39 1007.5
20260902185115 75 157 7.8 13.9 0.00 0.00 0.00 40 1007.5
20260902184114 74 145 8.7 12.2 0.00 0.00 0.00 42 1007.6
20260902183053 74 170 8.7 10.4 0.00 0.00 0.00 42 1007.7
20260902182054 74 175 9.6 14.8 0.00 0.00 0.00 42 1007.8
20260902181054 73 164 8.7 12.2 0.00 0.00 0.00 42 1007.9
20260902180054 73 166 8.7 14.8 0.00 0.00 0.00 44 1007.9
20260902175054 73 160 9.6 12.2 0.00 0.00 0.00 44 1008.0
20260902174054 72 152 10.4 13.9 0.00 0.00 0.00 46 1008.0
20260902173054 73 164 8.7 11.3 0.00 0.00 0.00 44 1007.9
20260902172054 73 164 6.1 9.6 0.00 0.00 0.00 44 1008.0
20260902171054 74 171 8.7 13.0 0.00 0.00 0.00 45 1008.1
20260902170116 73 156 4.3 7.8 0.00 0.00 0.00 44 1008.2
20260902165116 72 29 1.7 2.6 0.00 0.00 0.00 44 1008.2
20260902164056 72 23 3.5 5.2 0.00 0.00 0.00 45 1008.2
20260902163055 71 5 2.6 4.3 0.00 0.00 0.00 46 1008.2
20260902162055 70 319 3.5 5.2 0.00 0.00 0.00 47 1008.1
20260902161055 68 9 1.7 3.5 0.00 0.00 0.00 52 1008.3
20260902160055 65 45 1.7 2.6 0.00 0.00 0.00 58 1008.5
20260902155055 63 0.0 0.0 0.00 0.00 0.00 67 1008.5
20260902154055 63 0.0 0.0 0.00 0.00 0.00 70 1008.5
20260902153055 62 0.0 0.0 0.00 0.00 0.00 71 1008.6
20260902152117 62 104 1.7 2.6 0.00 0.00 0.00 72 1008.6
20260902151117 62 0.0 0.0 0.00 0.00 0.00 74 1008.7
20260902150056 61 121 1.7 2.6 0.00 0.00 0.00 76 1008.6
20260902145056 60 46 0.9 2.6 0.00 0.00 0.00 80 1008.7
20260902144056 58 100 0.0 1.7 0.00 0.00 0.00 84 1008.7
20260902143116 56 101 1.7 1.7 0.00 0.00 0.00 86 1008.6
20260902142058 54 113 0.9 1.7 0.00 0.00 0.00 87 1008.8
20260902141118 53 23 0.0 2.6 0.00 0.00 0.00 85 1008.6
20260902140158 52 187 0.9 1.7 0.00 0.00 0.00 84 1008.6
20260902135057 52 0.0 0.9 0.00 0.00 0.00 84 1008.6
20260902134558 52 64 0.9 1.7 0.00 0.00 0.00 83 1008.4
20260902133618 52 248 0.0 0.9 0.00 0.00 0.00 83 1008.3
20260902132557 52 186 0.9 2.6 0.00 0.00 0.00 82 1008.3
20260902131559 52 338 0.9 1.7 0.00 0.00 0.00 82 1008.4
20260902130623 52 278 0.0 1.7 0.00 0.00 0.00 80 1008.6
20260902125557 53 160 0.9 1.7 0.00 0.00 0.00 80 1008.4
20260902124619 53 210 0.9 2.6 0.00 0.00 0.00 79 1008.5
20260902123557 53 0.0 0.0 0.00 0.00 0.00 78 1008.5
20260902122559 54 186 0.0 1.7 0.00 0.00 0.00 77 1008.6
20260902121559 54 0.0 0.0 0.00 0.00 0.00 76 1008.4
20260902120559 54 0.0 0.0 0.00 0.00 0.00 76 1008.5
20260902115600 55 234 0.9 1.7 0.00 0.00 0.00 75 1008.4
20260902114640 55 266 0.0 2.6 0.00 0.00 0.00 75 1008.4
20260902113558 55 225 0.0 1.7 0.00 0.00 0.00 73 1008.3
20260902112558 55 0.0 0.0 0.00 0.00 0.00 72 1008.3
20260902111600 55 236 0.9 2.6 0.00 0.00 0.00 72 1008.2
20260902110600 55 126 2.6 3.5 0.00 0.00 0.00 73 1008.2
20260902105558 56 111 0.9 2.6 0.00 0.00 0.00 72 1008.1
20260902104559 56 338 0.0 1.7 0.00 0.00 0.00 70 1008.0
20260902103559 57 0.0 0.0 0.00 0.00 0.00 67 1007.7
20260902102559 58 55 0.0 0.9 0.00 0.00 0.00 64 1007.6
20260902101559 59 113 0.0 1.7 0.00 0.00 0.00 62 1007.6
20260902100559 60 0.0 0.0 0.00 0.00 0.00 59 1007.6
20260902095601 62 234 0.0 1.7 0.00 0.00 0.00 55 1007.6
20260902094601 63 251 0.9 1.7 0.00 0.00 0.00 53 1007.6
20260902093601 64 265 2.6 2.6 0.00 0.00 0.00 51 1007.7
20260902092601 65 279 1.7 2.6 0.00 0.00 0.00 49 1007.6
20260902091600 64 1 1.7 2.6 0.00 0.00 0.00 50 1007.4
20260902090601 63 232 3.5 5.2 0.00 0.00 0.00 51 1007.5
20260902085600 62 253 3.5 7.0 0.00 0.00 0.00 54 1007.5
20260902084622 61 222 0.9 3.5 0.00 0.00 0.00 56 1007.6
20260902083621 62 0.0 0.0 0.00 0.00 0.00 54 1007.6
20260902082600 63 203 1.7 2.6 0.00 0.00 0.00 53 1007.6
20260902081602 64 217 2.6 3.5 0.00 0.00 0.00 53 1007.5
20260902080642 64 257 2.6 3.5 0.00 0.00 0.00 53 1007.6
20260902075601 65 237 2.6 3.5 0.00 0.00 0.00 51 1007.5
20260902074600 66 234 3.5 5.2 0.00 0.00 0.00 50 1007.7
20260902073601 66 251 3.5 5.2 0.00 0.00 0.00 50 1007.7
20260902072601 67 253 3.5 6.1 0.00 0.00 0.00 49 1007.7
20260902071601 67 235 5.2 7.8 0.00 0.00 0.00 47 1007.7
20260902070603 67 275 6.1 9.6 0.00 0.00 0.00 46 1007.8
20260902065643 67 244 6.1 9.6 0.00 0.00 0.00 45 1007.7
20260902064622 67 230 4.3 7.0 0.00 0.00 0.00 46 1007.5
20260902063603 67 245 3.5 6.1 0.00 0.00 0.00 46 1007.4
20260902062601 67 253 3.5 5.2 0.00 0.00 0.00 48 1007.2
20260902061602 68 269 3.5 4.3 0.00 0.00 0.00 47 1007.1
20260902060603 68 247 4.3 6.1 0.00 0.00 0.00 47 1007.0
20260902055602 68 249 3.5 5.2 0.00 0.00 0.00 47 1006.9
20260902054604 68 282 3.5 5.2 0.00 0.00 0.00 47 1007.0
20260902053604 68 211 3.5 4.3 0.00 0.00 0.00 47 1006.8
20260902052622 68 0.0 0.0 0.00 0.00 0.00 48 1006.8
20260902051604 68 256 2.6 5.2 0.00 0.00 0.00 47 1006.6
20260902050603 68 255 2.6 4.3 0.00 0.00 0.00 47 1006.4
20260902045603 68 234 0.9 3.5 0.00 0.00 0.00 46 1006.3
20260902044623 69 220 1.7 3.5 0.00 0.00 0.00 46 1006.2
20260902043604 70 0.0 0.0 0.00 0.00 0.00 45 1006.1
20260902042623 70 264 1.7 4.3 0.00 0.00 0.00 42 1006.1
20260902041605 69 232 3.5 4.3 0.00 0.00 0.00 41 1005.8
20260902040605 70 224 2.6 4.3 0.00 0.00 0.00 42 1005.7
20260902035604 70 227 2.6 4.3 0.00 0.00 0.00 40 1005.6
20260902034625 69 217 1.7 2.6 0.00 0.00 0.00 39 1005.3
20260902033604 69 213 2.6 4.3 0.00 0.00 0.00 41 1005.2
20260902032646 70 264 1.7 1.7 0.00 0.00 0.00 41 1004.9
20260902031604 71 270 0.0 1.7 0.00 0.00 0.00 39 1004.7
20260902030646 72 228 0.9 1.7 0.00 0.00 0.00 38 1004.7
20260902025604 74 244 0.9 2.6 0.00 0.00 0.00 37 1004.5
20260902024604 75 257 1.7 2.6 0.00 0.00 0.00 37 1004.4
20260902023606 76 267 1.7 5.2 0.00 0.00 0.00 36 1004.3
20260902022605 77 241 2.6 4.3 0.00 0.00 0.00 37 1004.2
20260902021604 78 255 1.7 4.3 0.00 0.00 0.00 37 1004.1
20260902020606 79 263 2.6 4.3 0.00 0.00 0.00 36 1004.1
20260902015605 80 256 3.5 5.2 0.00 0.00 0.00 36 1004.1
20260902014605 81 276 5.2 7.8 0.00 0.00 0.00 36 1004.0
20260902013625 82 279 4.3 6.1 0.00 0.00 0.00 38 1004.1
20260902012605 83 281 3.5 4.3 0.00 0.00 0.00 36 1003.8
20260902011626 84 231 1.7 2.6 0.00 0.00 0.00 35 1003.6
20260902010627 85 267 2.6 3.5 0.00 0.00 0.00 33 1003.6
20260902005605 86 271 3.5 4.3 0.00 0.00 0.00 32 1003.6
20260902004606 87 254 2.6 3.5 0.00 0.00 0.00 31 1003.5
20260902003607 87 244 6.1 8.7 0.00 0.00 0.00 26 1003.4
20260902002626 88 206 4.3 6.1 0.00 0.00 0.00 25 1003.5